Theta_e
287 288 288 288 288 288 288 288 288 289 289 289 289 289 289 289 289 289 288 288 287 288 288 289 290 293 294 296 298 296 293 291 284 284 286 286 286 286 287 288 291 291 291
285 286 286 287 287 286 286 287 287 287 288 287 287 287 287 287 287 287 286 286 285 285 286 287 287 290 290 292 293 295 295 292 287 283 285 285 283 284 284 284 286 288 289
283 284 284 285 285 285 285 285 286 286 286 286 286 285 286 286 285 285 285 285 285 284 284 284 285 287 288 289 290 291 292 291 289 285 283 284 282 283 281 282 282 283 284
281 282 282 282 283 284 284 284 284 284 284 285 285 285 285 285 285 283 284 284 284 284 284 283 283 285 287 288 288 289 290 289 287 285 283 281 281 282 282 280 279 281 280
280 280 280 282 283 283 283 283 283 282 283 284 285 285 285 285 285 283 282 282 282 283 284 284 282 282 285 287 288 287 288 287 286 284 282 281 280 280 280 280 278 278 277
279 279 281 281 282 282 282 282 281 281 281 282 283 284 284 284 286 285 283 282 281 281 282 283 284 282 282 285 286 288 288 286 285 285 283 281 279 281 281 279 277 276 275
279 279 279 280 281 281 281 281 280 280 281 281 281 282 282 285 287 285 283 282 281 281 281 282 283 283 282 282 283 283 283 286 286 286 284 283 282 282 281 279 279 278 275
278 278 279 279 279 280 281 280 280 281 280 280 280 281 281 283 286 287 284 282 281 280 281 282 282 284 283 281 280 279 280 282 282 281 281 281 282 282 283 281 279 274 274
277 277 278 278 278 279 279 279 280 280 280 280 281 281 281 282 285 286 284 283 281 280 281 281 283 284 284 283 280 277 276 276 281 283 284 285 284 282 280 279 276 275 272
277 277 277 278 277 277 277 278 280 281 280 280 280 281 282 281 284 286 284 283 280 279 280 280 282 284 286 284 280 278 275 275 275 275 274 275 275 276 277 277 277 274 271
276 276 275 275 276 277 277 278 279 279 280 280 280 281 281 281 281 284 285 282 280 279 278 278 280 283 284 284 282 279 277 276 275 273 272 272 272 271 271 271 272 273 271
275 274 273 273 275 275 274 277 277 278 278 278 278 278 281 281 282 282 283 284 282 279 278 278 278 281 281 282 280 279 277 274 272 271 271 270 269 269 268 269 269 269 270
271 269 270 271 272 273 274 275 275 278 276 277 277 276 278 279 280 282 282 282 282 279 279 278 278 277 276 275 277 276 272 272 271 270 269 268 268 267 267 267 266 265 264
270 269 269 269 269 270 272 274 276 277 277 277 277 276 276 277 279 281 281 280 280 280 278 276 275 274 274 271 269 270 270 270 269 269 267 266 265 266 265 264 267 265 268
270 268 268 268 266 268 270 271 274 277 279 277 277 278 276 276 278 280 280 280 280 281 276 273 270 270 269 268 267 266 265 266 266 264 265 266 265 265 264 261 262 264 265
269 268 267 267 266 267 268 269 277 279 279 280 279 279 279 280 279 279 280 280 280 280 274 271 268 267 266 265 265 265 263 262 262 263 263 263 263 264 264 263 262 262 264
270 267 266 266 265 265 265 266 266 269 277 277 277 277 278 278 277 277 277 276 276 272 268 267 266 265 265 264 264 263 263 260 257 261 261 261 261 260 264 263 261 262 261
267 265 265 263 262 262 263 263 262 262 263 264 269 273 275 276 275 274 274 269 263 264 262 263 264 265 264 263 263 262 262 261 260 260 259 257 258 261 263 262 261 261 261
266 264 262 260 259 259 260 260 260 258 258 258 261 267 264 271 271 270 268 260 259 260 261 262 262 262 262 261 260 260 259 259 257 258 257 256 256 259 257 257 258 254 255
265 263 262 260 258 258 258 259 257 256 257 256 259 260 259 260 258 257 257 257 258 258 259 260 260 260 260 260 260 259 261 260 259 258 256 255 255 256 258 256 257 260 259
264 262 260 258 257 258 257 257 255 254 255 254 255 259 267 257 255 255 255 255 255 256 257 258 259 259 259 260 260 261 259 259 257 256 257 255 254 257 253 254 254 253 254
264 262 260 260 256 258 256 255 255 254 254 254 254 256 265 254 254 254 254 255 255 255 255 256 258 258 257 257 258 259 260 259 257 256 256 254 255 254 254 254 253 254 253
264 261 258 255 256 255 255 252 254 255 254 253 254 254 254 254 253 254 254 254 253 254 255 255 256 256 256 256 256 257 258 258 257 256 257 256 255 255 255 255 254 255 255
264 263 261 259 257 257 258 255 254 254 255 254 253 253 254 252 253 252 252 253 253 253 252 252 253 253 253 255 256 255 255 255 256 257 256 257 256 254 254 253 253 252 253
264 263 262 260 259 258 257 254 254 254 254 255 254 253 252 252 252 252 252 251 250 252 253 251 251 251 251 251 252 253 255 255 252 254 255 257 256 255 254 254 253 253 252
264 263 262 260 259 258 258 256 255 255 255 255 254 253 253 253 253 252 251 251 252 252 252 252 252 251 251 253 253 256 261 260 254 253 254 256 256 255 255 255 255 255 254
Wind_Speed
12 11 11 12 13 12 12 12 12 12 13 14 14 15 15 14 13 12 11 11 11 11 13 13 13 11 6 6 5 8 9 9 9 5 3 3 5 7 10 10 9 10 10
9 9 10 9 10 12 12 12 11 12 13 13 13 13 13 13 13 13 13 12 14 14 13 13 13 10 12 9 5 6 11 11 11 12 4 4 5 7 10 10 8 7 8
7 7 9 11 11 11 11 11 12 12 13 13 13 13 13 13 13 13 12 12 12 12 12 14 14 13 12 8 7 5 5 8 9 10 9 4 3 4 7 8 8 9 7
7 8 9 10 10 10 11 12 12 12 12 11 13 14 14 14 14 13 12 12 11 11 12 12 13 14 13 10 7 6 6 8 9 9 9 7 5 4 5 7 6 5 6
6 7 9 8 8 9 10 10 10 12 11 11 11 13 13 14 12 14 13 12 12 12 12 12 12 12 19 18 5 6 6 6 7 9 8 7 7 7 8 5 6 6 3
5 7 7 7 8 9 10 11 12 12 11 12 14 14 13 10 19 20 14 11 12 12 11 12 11 12 13 19 20 19 10 6 7 5 7 8 8 6 5 6 7 5 4
6 6 6 7 8 9 10 12 12 11 10 13 13 13 12 12 17 15 15 10 10 11 11 9 8 7 10 10 15 18 18 19 10 5 8 7 9 7 8 8 7 2 2
5 5 5 6 7 8 10 11 11 10 11 11 12 11 11 10 20 18 9 7 9 11 11 11 9 8 10 9 10 12 14 14 12 8 7 5 5 5 6 5 6 7 6
5 5 5 5 8 8 11 10 10 9 9 10 10 11 9 9 19 21 8 6 8 9 9 11 10 8 9 11 8 9 9 10 14 18 18 14 13 11 7 7 5 4 2
5 6 5 5 8 8 8 7 6 6 9 8 9 8 8 11 19 21 11 6 8 7 8 10 17 14 12 11 8 7 8 7 7 7 6 10 11 12 15 7 4 3 3
5 5 5 6 7 6 5 4 6 6 5 5 7 8 9 9 12 19 16 7 6 6 7 7 8 18 18 17 15 9 7 5 8 8 7 7 7 8 7 7 7 3 3
5 5 6 6 5 5 5 5 7 7 7 7 8 7 6 9 15 15 17 13 11 7 8 7 7 14 16 17 11 13 11 8 5 6 7 7 7 7 7 8 9 9 9
5 5 5 5 5 4 5 5 5 8 6 6 7 6 7 7 6 15 14 14 10 6 6 9 13 14 14 12 17 14 8 5 4 5 5 5 4 3 2 3 6 6 8
6 5 5 5 4 4 4 4 6 5 6 5 6 5 4 4 7 7 6 6 9 2 5 6 9 11 15 10 7 9 6 5 4 4 3 2 1 2 2 3 2 2 3
6 4 5 5 4 3 3 3 3 2 5 4 6 5 3 6 9 15 13 7 6 6 5 4 5 5 6 6 6 6 6 6 4 3 2 2 2 1 2 3 2 2 4
6 4 3 4 3 3 3 3 9 8 10 12 14 11 5 12 16 17 16 14 16 11 5 4 4 5 6 5 5 3 5 5 4 2 2 2 2 2 2 2 3 4 3
7 6 4 4 3 3 3 4 4 5 11 13 15 16 14 14 16 17 14 13 17 11 5 5 4 4 4 3 4 5 3 4 3 3 3 3 2 2 2 2 2 2 2
6 6 5 4 4 3 4 4 3 3 2 2 9 14 14 15 16 18 14 12 6 8 4 4 4 4 3 4 4 3 3 3 3 3 3 3 2 1 1 2 2 2 1
7 4 5 4 4 3 4 4 3 3 2 2 2 6 10 12 14 16 15 6 3 5 4 4 4 4 4 3 3 3 3 3 3 2 2 2 2 1 2 2 3 3 2
6 9 6 5 4 3 3 5 4 2 3 1 2 2 2 4 5 5 4 3 4 3 4 4 4 4 4 3 3 3 3 3 3 2 2 2 2 2 2 2 1 1 1
6 6 8 4 4 4 4 5 4 3 3 2 1 1 11 4 2 2 3 3 3 3 3 3 3 3 3 3 3 3 3 3 2 2 1 2 1 2 2 2 2 2 1
7 7 6 5 4 4 4 4 5 4 3 2 1 2 10 4 2 1 2 3 2 1 2 2 2 2 3 3 4 3 3 3 2 1 1 1 2 3 2 2 1 1 2
8 8 6 4 4 4 4 4 4 5 4 3 2 2 2 3 1 1 1 2 3 3 2 2 2 3 2 2 1 1 2 2 2 0 1 1 1 2 1 1 1 1 1
9 9 8 6 5 4 5 5 4 5 4 4 3 2 2 3 1 2 2 3 2 2 2 2 2 2 3 3 2 1 1 1 0 1 1 1 2 2 1 2 2 2 2
9 9 8 8 7 6 5 5 4 4 4 4 3 3 2 2 2 1 2 2 3 2 3 2 1 2 2 3 3 3 3 4 2 2 2 3 3 3 2 2 2 2 2
9 9 8 7 6 6 6 6 5 5 5 4 4 3 3 3 3 2 2 2 2 2 2 2 2 2 2 2 3 5 3 4 3 3 2 3 3 2 2 3 3 2 3
Wind_Direction
2 8 16 17 22 28 27 24 22 25 25 27 26 28 26 25 22 31 32 24 30 25 18 15 9 6 38 44 63 94 92 100 100 85 68 71 71 87 77 76 91 106 106
358 360 14 30 25 31 29 25 22 30 28 26 29 33 31 28 23 24 24 22 27 23 13 14 19 6 19 20 38 74 123 118 123 120 112 105 73 88 92 84 82 76 106
354 15 23 20 24 31 28 26 27 25 30 33 34 33 29 28 27 26 25 26 27 23 20 23 19 14 23 18 24 52 91 113 131 139 129 106 101 119 91 83 85 79 61
7 20 29 24 22 20 21 26 28 28 31 32 35 32 31 29 27 24 28 29 26 25 24 25 20 19 19 16 28 47 95 109 116 121 121 120 119 120 110 119 101 85 88
22 28 25 19 25 32 30 29 30 33 31 31 37 41 38 37 29 25 23 26 27 27 21 22 26 15 30 33 32 41 83 108 121 124 126 128 138 153 159 147 129 123 86
36 37 18 21 27 32 30 29 27 27 31 32 32 30 28 30 33 36 35 31 28 29 26 24 23 25 30 39 43 50 64 96 117 123 131 143 149 151 142 146 140 141 149
54 39 23 32 35 32 39 35 32 27 30 35 32 27 21 15 24 37 37 31 30 32 22 11 15 25 30 40 47 52 47 53 61 122 135 134 154 160 152 153 159 137 105
70 49 32 30 40 47 46 40 34 31 31 31 30 25 21 7 7 19 47 52 42 24 18 12 6 12 41 44 53 57 54 49 46 54 73 90 109 123 150 148 126 101 94
85 62 39 28 44 42 45 32 29 30 30 29 27 22 16 3 6 355 40 44 48 32 15 12 4 4 46 53 57 65 72 67 56 55 59 80 88 97 116 124 128 129 97
86 69 50 48 54 47 51 31 23 29 30 26 23 22 14 7 5 17 35 30 42 35 18 14 13 18 53 55 56 55 57 49 76 79 61 57 56 61 57 59 121 123 120
99 84 54 47 58 45 46 17 25 31 27 25 22 25 32 12 12 17 35 30 31 37 27 13 8 29 53 57 57 57 58 67 75 80 75 64 57 54 51 50 43 88 134
100 83 62 47 50 51 52 38 40 29 21 22 24 27 28 17 13 15 20 37 39 39 29 23 13 28 38 49 48 57 74 81 79 81 81 74 72 63 54 55 59 64 56
103 90 77 59 48 43 63 58 52 44 29 27 31 30 25 2 356 3 14 19 42 47 37 33 33 41 49 47 42 41 45 61 72 76 84 79 60 50 77 70 66 67 66
118 101 84 74 49 44 60 62 67 39 39 36 25 43 14 3 11 11 11 0 359 41 52 39 39 50 55 53 43 37 34 37 52 64 60 49 10 39 48 6 61 14 60
121 111 94 90 70 70 83 83 72 347 53 45 24 50 23 29 14 5 5 357 350 354 104 49 27 20 33 34 45 44 36 37 53 37 40 64 56 41 48 4 43 45 65
127 123 124 108 89 82 92 78 56 71 59 56 48 39 21 28 13 8 6 17 21 51 53 55 41 33 34 18 19 41 40 34 35 48 65 56 61 59 68 51 57 52 71
132 141 131 111 103 109 80 77 81 6 58 58 54 34 26 29 21 21 31 46 40 47 56 47 51 43 32 40 35 43 36 17 343 42 67 68 81 54 40 53 72 78 86
123 132 132 128 123 117 98 93 91 92 79 353 27 50 34 40 33 34 43 53 33 26 29 28 30 35 46 52 38 39 41 44 42 29 42 33 33 65 96 75 56 94 88
139 142 130 117 113 116 116 107 100 106 97 83 1 46 26 44 51 43 44 61 68 35 13 20 13 20 30 30 40 52 50 50 51 49 39 30 21 0 89 79 91 68 113
130 135 131 131 132 131 130 116 115 123 114 119 70 70 13 29 34 16 33 51 50 39 16 15 9 12 20 31 33 24 34 40 41 57 64 48 35 19 73 118 48 103 72
140 140 137 130 147 159 147 130 133 146 131 118 108 309 91 92 59 23 27 35 32 25 19 12 2 10 11 12 22 31 38 30 23 41 57 80 52 75 65 55 76 54 83
144 149 149 152 148 160 148 140 139 142 154 135 56 355 90 95 93 37 5 12 355 350 337 338 2 8 2 5 358 12 27 25 22 6 18 55 86 99 99 89 43 38 24
142 147 144 142 148 151 134 150 161 147 172 171 167 137 90 100 84 3 349 338 335 339 2 358 13 7 6 8 2 355 8 14 355 210 125 121 108 107 97 91 95 66 40
149 157 155 154 157 176 159 164 196 153 162 165 183 179 175 136 135 293 302 315 331 329 333 2 2 2 347 0 9 3 333 298 340 118 129 129 111 108 92 98 68 69 65
157 155 157 163 169 177 165 157 202 168 170 171 189 190 214 155 131 270 298 304 299 330 333 341 333 334 347 341 340 326 321 56 77 105 126 117 116 123 110 102 115 99 84
161 156 158 153 161 173 173 163 202 183 181 178 190 190 201 189 153 200 248 267 294 308 316 301 294 298 313 298 281 263 263 140 118 122 122 112 111 97 88 93 98 93 110